CCA310 RKPC-ZBAA

Flight info

Callsign CCA310
Flight time 2h 8m
Altitude 34000
Route LIMDI1E LIMDI Y677 TOLIS Y655 NONOS Z55 AGAVO/K0772S0660 A591 IKEKA W4 HCH W200 DOVIV W55 DUMAP DUMAP9Z
Aircraft B738/M-SDE2E3FGHIRWXY/LB1

Departure

Time 2026-05-06 01:41
Airport Jeju International Airport (RKPC)

Arrival

Time 2026-05-06 03:49
Airport Beijing Capital International Airport (ZBAA)
Time Latitude Longitude Altitude Speed Heading
2026-05-06 01:24 33.50707 126.49183 89 ft 0 kts 155°
2026-05-06 01:30 33.50716 126.49178 89 ft 2 kts 155°
2026-05-06 01:30 33.50731 126.49170 90 ft 2 kts 156°
2026-05-06 01:31 33.50747 126.49162 90 ft 2 kts 159°
2026-05-06 01:31 33.50762 126.49155 90 ft 2 kts 167°
2026-05-06 01:31 33.50779 126.49154 91 ft 2 kts 186°
2026-05-06 01:31 33.50795 126.49157 89 ft 2 kts 201°
2026-05-06 01:32 33.50809 126.49166 90 ft 2 kts 221°
2026-05-06 01:32 33.50812 126.49170 90 ft 0 kts 229°
2026-05-06 01:34 33.50812 126.49169 90 ft 1 kts 229°
2026-05-06 01:34 33.50800 126.49149 90 ft 6 kts 235°
2026-05-06 01:34 33.50781 126.49110 88 ft 9 kts 239°
2026-05-06 01:34 33.50746 126.49042 90 ft 10 kts 239°
2026-05-06 01:35 33.50711 126.48974 91 ft 10 kts 241°
2026-05-06 01:35 33.50746 126.48886 88 ft 10 kts 327°
2026-05-06 01:35 33.50783 126.48856 91 ft 10 kts 325°
2026-05-06 01:35 33.50789 126.48780 92 ft 13 kts 239°
2026-05-06 01:36 33.50720 126.48645 89 ft 22 kts 238°
2026-05-06 01:36 33.50642 126.48493 92 ft 21 kts 238°
2026-05-06 01:36 33.50566 126.48345 91 ft 21 kts 238°
2026-05-06 01:36 33.50493 126.48201 92 ft 20 kts 238°
2026-05-06 01:37 33.50421 126.48061 93 ft 19 kts 238°
2026-05-06 01:37 33.50355 126.47928 94 ft 19 kts 239°
2026-05-06 01:37 33.50287 126.47798 93 ft 18 kts 237°
2026-05-06 01:37 33.50223 126.47672 93 ft 17 kts 239°
2026-05-06 01:38 33.50160 126.47551 95 ft 17 kts 237°
2026-05-06 01:38 33.50100 126.47434 95 ft 16 kts 238°
2026-05-06 01:38 33.50043 126.47322 95 ft 16 kts 238°
2026-05-06 01:38 33.50070 126.47244 95 ft 0 kts 338°
2026-05-06 01:39 33.50080 126.47241 97 ft 6 kts 347°
2026-05-06 01:39 33.50141 126.47234 95 ft 9 kts 358°
2026-05-06 01:40 33.50200 126.47253 96 ft 9 kts 49°
2026-05-06 01:40 33.50209 126.47270 95 ft 0 kts 59°
2026-05-06 01:40 33.50297 126.47446 95 ft 63 kts 58°
2026-05-06 01:40 33.50670 126.48168 92 ft 137 kts 58°
2026-05-06 01:41 33.51268 126.49304 355 ft 172 kts 59°
2026-05-06 01:41 33.51800 126.50524 1536 ft 162 kts 60°
2026-05-06 01:41 33.52435 126.51748 2058 ft 189 kts 59°
2026-05-06 01:41 33.53191 126.53186 2334 ft 216 kts 58°
2026-05-06 01:42 33.54028 126.54787 2568 ft 235 kts 59°
2026-05-06 01:42 33.55017 126.56687 3135 ft 243 kts 58°
2026-05-06 01:42 33.55916 126.58426 3749 ft 248 kts 58°
2026-05-06 01:42 33.56857 126.60252 4150 ft 264 kts 58°
2026-05-06 01:43 33.57833 126.62152 4915 ft 268 kts 58°
2026-05-06 01:43 33.58811 126.64061 5736 ft 271 kts 58°
2026-05-06 01:43 33.59803 126.65998 6485 ft 275 kts 59°
2026-05-06 01:43 33.60814 126.67975 7187 ft 280 kts 58°
2026-05-06 01:44 33.61839 126.69989 7872 ft 286 kts 60°
2026-05-06 01:44 33.62451 126.72260 8550 ft 291 kts 86°
2026-05-06 01:44 33.62166 126.74625 9033 ft 294 kts 114°
2026-05-06 01:44 33.60990 126.76593 9124 ft 292 kts 140°
2026-05-06 01:45 33.59318 126.77976 9137 ft 293 kts 150°
2026-05-06 01:45 33.57552 126.79214 9132 ft 293 kts 151°
2026-05-06 01:45 33.55802 126.80446 9123 ft 293 kts 150°
2026-05-06 01:45 33.54043 126.81703 9124 ft 295 kts 150°
2026-05-06 01:46 33.52167 126.82637 9115 ft 292 kts 173°
2026-05-06 01:46 33.50173 126.82504 9128 ft 288 kts 199°
2026-05-06 01:46 33.48435 126.81376 9139 ft 284 kts 222°
2026-05-06 01:46 33.47164 126.79580 9132 ft 283 kts 238°
2026-05-06 01:47 33.46133 126.77572 9123 ft 283 kts 240°
2026-05-06 01:47 33.45127 126.75541 9127 ft 284 kts 240°
2026-05-06 01:47 33.44119 126.73512 9118 ft 284 kts 240°
2026-05-06 01:47 33.43100 126.71486 9126 ft 283 kts 239°
2026-05-06 01:48 33.42076 126.69471 9135 ft 284 kts 239°
2026-05-06 01:48 33.41044 126.67453 9136 ft 285 kts 239°
2026-05-06 01:48 33.40008 126.65431 9125 ft 285 kts 239°
2026-05-06 01:48 33.39052 126.63362 9104 ft 283 kts 252°
2026-05-06 01:49 33.38800 126.61057 9253 ft 280 kts 274°
2026-05-06 01:49 33.39169 126.58758 9821 ft 285 kts 284°
2026-05-06 01:49 33.39676 126.56463 10514 ft 289 kts 285°
2026-05-06 01:49 33.40224 126.54054 10726 ft 311 kts 285°
2026-05-06 01:50 33.40800 126.51495 10898 ft 333 kts 284°
2026-05-06 01:50 33.41413 126.48717 11063 ft 355 kts 284°
2026-05-06 01:50 33.42053 126.45778 11233 ft 374 kts 284°
2026-05-06 01:50 33.42714 126.42720 11640 ft 383 kts 284°
2026-05-06 01:51 33.43381 126.39619 12277 ft 385 kts 284°
2026-05-06 01:51 33.44050 126.36505 12900 ft 387 kts 284°
2026-05-06 01:51 33.44723 126.33369 13469 ft 391 kts 284°
2026-05-06 01:51 33.45403 126.30193 14022 ft 395 kts 284°
2026-05-06 01:52 33.46078 126.27034 14491 ft 398 kts 284°
2026-05-06 01:52 33.46765 126.23814 14972 ft 401 kts 284°
2026-05-06 01:52 33.47456 126.20568 15434 ft 404 kts 284°
2026-05-06 01:52 33.48154 126.17290 15891 ft 407 kts 285°
2026-05-06 01:53 33.48855 126.13991 16339 ft 410 kts 285°
2026-05-06 01:53 33.49559 126.10671 16787 ft 413 kts 285°
2026-05-06 01:53 33.50269 126.07320 17229 ft 416 kts 285°
2026-05-06 01:53 33.50982 126.03949 17661 ft 419 kts 285°
2026-05-06 01:54 33.51700 126.00553 18100 ft 422 kts 285°
2026-05-06 01:54 33.52421 125.97136 18496 ft 424 kts 285°
2026-05-06 01:54 33.53146 125.93691 18868 ft 427 kts 285°
2026-05-06 01:54 33.53872 125.90238 19248 ft 428 kts 285°
2026-05-06 01:55 33.54601 125.86772 19629 ft 430 kts 285°
2026-05-06 01:55 33.55333 125.83281 20020 ft 431 kts 285°
2026-05-06 01:55 33.56067 125.79775 20402 ft 433 kts 285°
2026-05-06 01:55 33.56803 125.76262 20772 ft 435 kts 285°
2026-05-06 01:56 33.57530 125.72783 21138 ft 437 kts 285°
2026-05-06 01:56 33.58267 125.69248 21514 ft 438 kts 285°
2026-05-06 01:56 33.59010 125.65683 21876 ft 440 kts 285°
2026-05-06 01:56 33.59753 125.62113 22214 ft 442 kts 285°
2026-05-06 01:57 33.60496 125.58533 22559 ft 443 kts 285°
2026-05-06 01:57 33.61242 125.54937 22896 ft 445 kts 285°
2026-05-06 01:57 33.61990 125.51324 23232 ft 446 kts 285°
2026-05-06 01:57 33.62739 125.47700 23561 ft 448 kts 285°
2026-05-06 01:58 33.63489 125.44062 23848 ft 449 kts 286°
2026-05-06 01:58 33.64238 125.40425 24110 ft 450 kts 286°
2026-05-06 01:58 33.64991 125.36766 24375 ft 451 kts 286°
2026-05-06 01:58 33.65743 125.33104 24635 ft 452 kts 286°
2026-05-06 01:59 33.66486 125.29480 24893 ft 453 kts 286°
2026-05-06 01:59 33.67240 125.25798 25145 ft 454 kts 286°
2026-05-06 01:59 33.67994 125.22106 25399 ft 455 kts 286°
2026-05-06 01:59 33.68748 125.18410 25638 ft 457 kts 286°
2026-05-06 02:00 33.69505 125.14697 25880 ft 458 kts 286°
2026-05-06 02:00 33.70260 125.10982 26116 ft 459 kts 287°
2026-05-06 02:00 33.71016 125.07259 26336 ft 460 kts 287°
2026-05-06 02:00 33.71774 125.03521 26583 ft 460 kts 287°
2026-05-06 02:01 33.72527 124.99794 26912 ft 458 kts 287°
2026-05-06 02:01 33.73277 124.96081 27288 ft 456 kts 287°
2026-05-06 02:01 33.74022 124.92383 27648 ft 454 kts 287°
2026-05-06 02:01 33.74763 124.88699 27964 ft 453 kts 287°
2026-05-06 02:02 33.75504 124.85018 28273 ft 453 kts 287°
2026-05-06 02:02 33.75995 124.82572 28499 ft 452 kts 287°
2026-05-06 02:02 33.76968 124.77717 28949 ft 450 kts 287°
2026-05-06 02:02 33.77461 124.75250 29176 ft 449 kts 288°
2026-05-06 02:03 33.78426 124.70418 29609 ft 448 kts 288°
2026-05-06 02:03 33.79154 124.66770 29949 ft 447 kts 288°
2026-05-06 02:03 33.79636 124.64350 30168 ft 447 kts 288°
2026-05-06 02:03 33.80356 124.60726 30457 ft 446 kts 288°
2026-05-06 02:04 33.81079 124.57089 30750 ft 444 kts 288°
2026-05-06 02:04 33.81798 124.53459 31023 ft 443 kts 288°
2026-05-06 02:04 33.82650 124.49964 31234 ft 437 kts 299°
2026-05-06 02:04 33.84231 124.46899 31469 ft 428 kts 314°
2026-05-06 02:05 33.86380 124.44477 31758 ft 421 kts 327°
2026-05-06 02:05 33.88897 124.42727 32079 ft 416 kts 337°
2026-05-06 02:05 33.91634 124.41613 32366 ft 415 kts 348°
2026-05-06 02:05 33.94515 124.41300 32619 ft 415 kts 358°
2026-05-06 02:06 33.97403 124.41362 32908 ft 414 kts 359°
2026-05-06 02:06 34.00244 124.41431 33185 ft 413 kts 359°
2026-05-06 02:06 34.03112 124.41467 33389 ft 413 kts 358°
2026-05-06 02:06 34.05991 124.41478 33568 ft 413 kts 358°
2026-05-06 02:07 34.08868 124.41478 33767 ft 413 kts 358°
2026-05-06 02:07 34.11740 124.41474 34017 ft 412 kts 358°
2026-05-06 02:07 34.17482 124.41466 34091 ft 413 kts 358°
2026-05-06 02:08 34.23220 124.41463 34086 ft 411 kts 358°
2026-05-06 02:08 34.28932 124.41463 34087 ft 410 kts 358°
2026-05-06 02:09 34.34630 124.41463 34089 ft 409 kts 358°
2026-05-06 02:09 34.40298 124.41464 34087 ft 409 kts 358°
2026-05-06 02:10 34.45997 124.41464 34086 ft 410 kts 357°
2026-05-06 02:10 34.51714 124.41464 34081 ft 410 kts 357°
2026-05-06 02:11 34.57430 124.41465 34083 ft 411 kts 357°
2026-05-06 02:11 34.63156 124.41465 34081 ft 412 kts 357°
2026-05-06 02:12 34.68856 124.41466 34080 ft 412 kts 357°
2026-05-06 02:12 34.74599 124.41466 34080 ft 413 kts 357°
2026-05-06 02:13 34.80354 124.41466 34079 ft 413 kts 357°
2026-05-06 02:13 34.86112 124.41467 34076 ft 414 kts 357°
2026-05-06 02:14 34.91879 124.41467 34077 ft 414 kts 357°
2026-05-06 02:14 34.97657 124.41468 34073 ft 415 kts 357°
2026-05-06 02:15 35.03398 124.41468 34079 ft 415 kts 357°
2026-05-06 02:15 35.09174 124.41469 34072 ft 415 kts 357°
2026-05-06 02:16 35.14953 124.41469 34069 ft 415 kts 356°
2026-05-06 02:16 35.20737 124.41470 34067 ft 415 kts 356°
2026-05-06 02:17 35.26522 124.41470 34063 ft 416 kts 356°
2026-05-06 02:17 35.32321 124.41471 34064 ft 416 kts 356°
2026-05-06 02:18 35.38113 124.41471 34061 ft 416 kts 356°
2026-05-06 02:18 35.43914 124.41472 34063 ft 417 kts 356°
2026-05-06 02:19 35.49680 124.41472 34061 ft 417 kts 356°
2026-05-06 02:19 35.55489 124.41472 34061 ft 417 kts 356°
2026-05-06 02:20 35.64206 124.41472 34059 ft 417 kts 356°
2026-05-06 02:21 35.70019 124.41472 34061 ft 418 kts 356°
2026-05-06 02:21 35.75845 124.41472 34060 ft 418 kts 356°
2026-05-06 02:22 35.81669 124.41472 34055 ft 418 kts 356°
2026-05-06 02:22 35.87494 124.41472 34052 ft 418 kts 356°
2026-05-06 02:23 35.93286 124.41472 34053 ft 419 kts 356°
2026-05-06 02:23 35.99114 124.41472 34051 ft 419 kts 356°
2026-05-06 02:24 36.04948 124.41472 34047 ft 419 kts 356°
2026-05-06 02:24 36.10784 124.41472 34047 ft 419 kts 355°
2026-05-06 02:25 36.16629 124.41472 34049 ft 420 kts 355°
2026-05-06 02:25 36.22472 124.41472 34044 ft 420 kts 355°
2026-05-06 02:26 36.28324 124.41472 34044 ft 420 kts 355°
2026-05-06 02:26 36.34182 124.41472 34043 ft 421 kts 355°
2026-05-06 02:27 36.39997 124.41472 34038 ft 421 kts 355°
2026-05-06 02:27 36.45860 124.41472 34036 ft 421 kts 355°
2026-05-06 02:28 36.51729 124.41472 34038 ft 421 kts 355°
2026-05-06 02:28 36.57588 124.41472 34037 ft 421 kts 355°
2026-05-06 02:29 36.63458 124.41441 34034 ft 420 kts 351°
2026-05-06 02:29 36.69060 124.39831 34034 ft 412 kts 336°
2026-05-06 02:30 36.74059 124.36433 34040 ft 409 kts 324°
2026-05-06 02:30 36.78726 124.32420 34028 ft 410 kts 324°
2026-05-06 02:31 36.83430 124.28379 34022 ft 410 kts 324°
2026-05-06 02:31 36.88149 124.24356 34022 ft 411 kts 324°
2026-05-06 02:32 36.92876 124.20334 34019 ft 411 kts 324°
2026-05-06 02:32 36.97606 124.16305 34018 ft 411 kts 324°
2026-05-06 02:33 37.02336 124.12268 34015 ft 411 kts 324°
2026-05-06 02:33 37.03901 124.10932 34018 ft 412 kts 324°
2026-05-06 02:33 37.09246 124.05923 34005 ft 410 kts 310°
2026-05-06 02:34 37.10844 124.02973 34019 ft 411 kts 298°
2026-05-06 02:34 37.11856 123.99616 34011 ft 416 kts 287°
2026-05-06 02:34 37.12230 123.96004 34004 ft 423 kts 274°
2026-05-06 02:34 37.11930 123.92304 34012 ft 431 kts 263°
2026-05-06 02:35 37.10948 123.88769 33995 ft 443 kts 249°
2026-05-06 02:35 37.07652 123.82145 34000 ft 450 kts 243°
2026-05-06 02:36 37.04152 123.75649 33995 ft 450 kts 243°
2026-05-06 02:36 37.00707 123.69127 33997 ft 449 kts 244°
2026-05-06 02:37 36.97305 123.62586 33997 ft 448 kts 244°
2026-05-06 02:37 36.93905 123.56039 34003 ft 448 kts 244°
2026-05-06 02:38 36.90506 123.49512 34001 ft 448 kts 244°
2026-05-06 02:38 36.87127 123.43037 33998 ft 447 kts 244°
2026-05-06 02:39 36.84466 123.36220 34004 ft 427 kts 265°
2026-05-06 02:39 36.84192 123.32576 33995 ft 419 kts 276°
2026-05-06 02:39 36.84583 123.29009 33993 ft 412 kts 288°
2026-05-06 02:40 36.86228 123.22169 33989 ft 412 kts 290°
2026-05-06 02:40 36.87955 123.15338 33990 ft 413 kts 290°
2026-05-06 02:41 36.89645 123.08475 33990 ft 414 kts 289°
2026-05-06 02:41 36.91310 123.01578 33989 ft 415 kts 289°
2026-05-06 02:42 36.92953 122.94717 33987 ft 415 kts 289°
2026-05-06 02:42 36.94602 122.87800 33987 ft 415 kts 289°
2026-05-06 02:43 36.96244 122.80903 34075 ft 412 kts 289°
2026-05-06 02:43 36.97880 122.74019 34081 ft 414 kts 289°
2026-05-06 02:44 36.99510 122.67138 34082 ft 415 kts 289°
2026-05-06 02:44 37.01156 122.60163 34080 ft 415 kts 289°
2026-05-06 02:45 37.02779 122.53269 34075 ft 415 kts 289°
2026-05-06 02:45 37.04407 122.46332 34075 ft 415 kts 289°
2026-05-06 02:46 37.06029 122.39407 34079 ft 414 kts 289°
2026-05-06 02:46 37.08568 122.33022 34076 ft 410 kts 306°
2026-05-06 02:47 37.12499 122.27867 34071 ft 412 kts 321°
2026-05-06 02:47 37.16820 122.23219 34072 ft 409 kts 308°
2026-05-06 02:48 37.19835 122.17188 34054 ft 410 kts 294°
2026-05-06 02:48 37.21652 122.10395 34060 ft 411 kts 290°
2026-05-06 02:49 37.23376 122.03567 34056 ft 411 kts 290°
2026-05-06 02:49 37.25107 121.96778 34052 ft 411 kts 290°
2026-05-06 02:50 37.26860 121.89957 34045 ft 410 kts 290°
2026-05-06 02:50 37.28318 121.84288 34043 ft 410 kts 290°
2026-05-06 02:51 37.30363 121.76319 34040 ft 410 kts 290°
2026-05-06 02:51 37.31813 121.70652 34045 ft 410 kts 290°
2026-05-06 02:52 37.33556 121.63820 34029 ft 410 kts 290°
2026-05-06 02:52 37.35295 121.56987 34027 ft 410 kts 290°
2026-05-06 02:53 37.37025 121.50168 34017 ft 409 kts 290°
2026-05-06 02:53 37.38736 121.43408 34017 ft 408 kts 290°
2026-05-06 02:54 37.40457 121.36591 34011 ft 408 kts 290°
2026-05-06 02:54 37.42173 121.29772 34009 ft 408 kts 290°
2026-05-06 02:55 37.43882 121.22967 34009 ft 408 kts 289°
2026-05-06 02:55 37.45656 121.16184 34002 ft 407 kts 292°
2026-05-06 02:56 37.47750 121.09607 33998 ft 407 kts 294°
2026-05-06 02:56 37.49885 121.03006 33998 ft 407 kts 293°
2026-05-06 02:57 37.51999 120.96389 33994 ft 407 kts 293°
2026-05-06 02:57 37.54106 120.89743 33987 ft 408 kts 293°
2026-05-06 02:58 37.56207 120.83099 33986 ft 407 kts 293°
2026-05-06 02:58 37.58288 120.76504 33977 ft 407 kts 293°
2026-05-06 02:59 37.60430 120.69892 33976 ft 407 kts 294°
2026-05-06 02:59 37.62616 120.63298 33969 ft 407 kts 294°
2026-05-06 03:00 37.64783 120.56701 33975 ft 407 kts 293°
2026-05-06 03:00 37.67320 120.50393 33972 ft 405 kts 300°
2026-05-06 03:01 37.70162 120.44237 33965 ft 405 kts 300°
2026-05-06 03:01 37.72994 120.38071 33959 ft 405 kts 300°
2026-05-06 03:02 37.75805 120.31907 33953 ft 405 kts 300°
2026-05-06 03:02 37.78611 120.25729 33951 ft 405 kts 300°
2026-05-06 03:03 37.81405 120.19560 33946 ft 404 kts 299°
2026-05-06 03:03 37.84197 120.13385 33947 ft 404 kts 299°
2026-05-06 03:04 37.86967 120.07248 33948 ft 403 kts 299°
2026-05-06 03:04 37.89746 120.01079 33945 ft 403 kts 299°
2026-05-06 03:05 37.92517 119.94917 33942 ft 402 kts 299°
2026-05-06 03:05 37.95285 119.88750 33939 ft 402 kts 299°
2026-05-06 03:06 37.98038 119.82603 33935 ft 402 kts 298°
2026-05-06 03:06 38.00796 119.76433 33934 ft 402 kts 298°
2026-05-06 03:07 38.03550 119.70260 33930 ft 402 kts 298°
2026-05-06 03:07 38.06304 119.64077 33925 ft 402 kts 298°
2026-05-06 03:08 38.09050 119.57898 33923 ft 402 kts 298°
2026-05-06 03:08 38.11685 119.51643 33916 ft 401 kts 292°
2026-05-06 03:09 38.13797 119.45161 33454 ft 392 kts 292°
2026-05-06 03:09 38.14833 119.41939 32555 ft 396 kts 291°
2026-05-06 03:09 38.15889 119.38656 31466 ft 406 kts 291°
2026-05-06 03:09 38.16974 119.35295 30320 ft 417 kts 291°
2026-05-06 03:10 38.18074 119.31893 29084 ft 427 kts 291°
2026-05-06 03:10 38.19213 119.28373 27846 ft 433 kts 291°
2026-05-06 03:10 38.20368 119.24806 26670 ft 438 kts 291°
2026-05-06 03:10 38.21537 119.21195 25496 ft 443 kts 291°
2026-05-06 03:11 38.22713 119.17560 24568 ft 444 kts 291°
2026-05-06 03:11 38.23880 119.13951 23889 ft 438 kts 291°
2026-05-06 03:11 38.25031 119.10386 23226 ft 433 kts 291°
2026-05-06 03:11 38.26167 119.06860 22416 ft 429 kts 291°
2026-05-06 03:12 38.27293 119.03360 21620 ft 425 kts 291°
2026-05-06 03:12 38.28407 118.99892 20861 ft 421 kts 291°
2026-05-06 03:12 38.29512 118.96448 20119 ft 418 kts 291°
2026-05-06 03:12 38.30605 118.93037 19404 ft 414 kts 291°
2026-05-06 03:13 38.31676 118.89690 18711 ft 411 kts 291°
2026-05-06 03:13 38.32743 118.86351 18357 ft 401 kts 290°
2026-05-06 03:13 38.33791 118.83071 18128 ft 399 kts 290°
2026-05-06 03:13 38.34841 118.79780 17870 ft 403 kts 290°
2026-05-06 03:14 38.35896 118.76466 17607 ft 404 kts 290°
2026-05-06 03:14 38.36951 118.73159 17348 ft 401 kts 290°
2026-05-06 03:14 38.38002 118.69872 17095 ft 399 kts 290°
2026-05-06 03:14 38.39050 118.66595 16826 ft 398 kts 290°
2026-05-06 03:15 38.40093 118.63328 16585 ft 398 kts 290°
2026-05-06 03:15 38.41137 118.60052 16516 ft 399 kts 290°
2026-05-06 03:15 38.42182 118.56772 16489 ft 398 kts 290°
2026-05-06 03:15 38.43224 118.53494 16488 ft 398 kts 290°
2026-05-06 03:16 38.44264 118.50219 16482 ft 398 kts 290°
2026-05-06 03:16 38.45305 118.46938 16484 ft 398 kts 290°
2026-05-06 03:16 38.46341 118.43668 16485 ft 398 kts 290°
2026-05-06 03:16 38.47366 118.40431 16483 ft 399 kts 290°
2026-05-06 03:17 38.48404 118.37143 16484 ft 398 kts 290°
2026-05-06 03:17 38.49441 118.33856 16482 ft 398 kts 290°
2026-05-06 03:17 38.50476 118.30572 16483 ft 398 kts 290°
2026-05-06 03:17 38.51511 118.27282 16488 ft 398 kts 290°
2026-05-06 03:18 38.52542 118.24001 16487 ft 398 kts 290°
2026-05-06 03:18 38.53573 118.20717 16485 ft 398 kts 290°
2026-05-06 03:18 38.54603 118.17431 16489 ft 398 kts 290°
2026-05-06 03:18 38.55634 118.14139 16484 ft 399 kts 290°
2026-05-06 03:19 38.56664 118.10848 16488 ft 399 kts 290°
2026-05-06 03:19 38.57692 118.07559 16487 ft 399 kts 290°
2026-05-06 03:19 38.58722 118.04259 16487 ft 399 kts 290°
2026-05-06 03:19 38.59753 118.01016 16486 ft 399 kts 291°
2026-05-06 03:20 38.62019 117.94522 16492 ft 400 kts 293°
2026-05-06 03:20 38.63178 117.91274 16485 ft 399 kts 293°
2026-05-06 03:20 38.64304 117.88112 16469 ft 381 kts 292°
2026-05-06 03:21 38.65373 117.85089 16465 ft 365 kts 292°
2026-05-06 03:21 38.66390 117.82199 16465 ft 348 kts 292°
2026-05-06 03:21 38.67357 117.79435 16464 ft 332 kts 292°
2026-05-06 03:21 38.68265 117.76833 16463 ft 317 kts 292°
2026-05-06 03:22 38.69145 117.74305 16463 ft 303 kts 292°
2026-05-06 03:22 38.69986 117.71885 16466 ft 290 kts 292°
2026-05-06 03:22 38.70788 117.69576 16462 ft 277 kts 291°
2026-05-06 03:22 38.71553 117.67372 16458 ft 264 kts 291°
2026-05-06 03:23 38.72283 117.65266 16402 ft 254 kts 291°
2026-05-06 03:23 38.72996 117.63206 16166 ft 252 kts 291°
2026-05-06 03:23 38.73696 117.61181 15848 ft 252 kts 291°
2026-05-06 03:23 38.74412 117.59101 15550 ft 251 kts 291°
2026-05-06 03:24 38.75116 117.57060 15547 ft 257 kts 291°
2026-05-06 03:24 38.75840 117.54964 15479 ft 256 kts 291°
2026-05-06 03:24 38.76554 117.52896 15481 ft 252 kts 291°
2026-05-06 03:24 38.77260 117.50853 15471 ft 250 kts 291°
2026-05-06 03:25 38.77964 117.48804 15488 ft 252 kts 291°
2026-05-06 03:25 38.78673 117.46747 15478 ft 253 kts 291°
2026-05-06 03:25 38.79386 117.44680 15482 ft 254 kts 291°
2026-05-06 03:25 38.80100 117.42604 15466 ft 254 kts 291°
2026-05-06 03:26 38.80812 117.40533 15472 ft 254 kts 291°
2026-05-06 03:26 38.81560 117.38481 15476 ft 256 kts 301°
2026-05-06 03:26 38.82891 117.36945 15343 ft 263 kts 322°
2026-05-06 03:26 38.84489 117.35660 14698 ft 279 kts 324°
2026-05-06 03:27 38.86196 117.34320 14066 ft 293 kts 324°
2026-05-06 03:27 38.87947 117.32946 13691 ft 297 kts 324°
2026-05-06 03:27 38.89701 117.31563 13397 ft 295 kts 324°
2026-05-06 03:27 38.91446 117.30178 13111 ft 293 kts 323°
2026-05-06 03:28 38.93176 117.28795 12802 ft 292 kts 323°
2026-05-06 03:28 38.94874 117.27429 12510 ft 291 kts 323°
2026-05-06 03:28 38.96608 117.26030 12225 ft 290 kts 323°
2026-05-06 03:28 38.98292 117.24669 11942 ft 289 kts 323°
2026-05-06 03:29 38.99996 117.23289 11649 ft 288 kts 323°
2026-05-06 03:29 39.01689 117.21915 11370 ft 287 kts 323°
2026-05-06 03:29 39.03373 117.20546 11086 ft 286 kts 323°
2026-05-06 03:29 39.05048 117.19182 10811 ft 285 kts 323°
2026-05-06 03:30 39.06722 117.17818 10536 ft 284 kts 322°
2026-05-06 03:30 39.08389 117.16460 10279 ft 283 kts 323°
2026-05-06 03:30 39.10050 117.15107 10006 ft 282 kts 322°
2026-05-06 03:30 39.11678 117.13779 9764 ft 280 kts 322°
2026-05-06 03:31 39.13317 117.12440 9563 ft 277 kts 322°
2026-05-06 03:31 39.14948 117.11108 9361 ft 277 kts 322°
2026-05-06 03:31 39.16577 117.09774 9168 ft 278 kts 323°
2026-05-06 03:31 39.18211 117.08437 8963 ft 278 kts 323°
2026-05-06 03:32 39.19846 117.07098 8768 ft 279 kts 323°
2026-05-06 03:32 39.21481 117.05761 8582 ft 277 kts 324°
2026-05-06 03:32 39.23099 117.04432 8364 ft 275 kts 324°
2026-05-06 03:32 39.24703 117.03118 8159 ft 272 kts 324°
2026-05-06 03:33 39.26293 117.01819 7962 ft 268 kts 324°
2026-05-06 03:33 39.27855 117.00537 7770 ft 265 kts 324°
2026-05-06 03:33 39.29400 116.99268 7606 ft 261 kts 325°
2026-05-06 03:33 39.30927 116.98013 7449 ft 258 kts 325°
2026-05-06 03:34 39.32432 116.96777 7283 ft 255 kts 325°
2026-05-06 03:34 39.33911 116.95554 7126 ft 255 kts 326°
2026-05-06 03:34 39.35407 116.94324 6979 ft 256 kts 326°
2026-05-06 03:34 39.36935 116.93065 6834 ft 258 kts 326°
2026-05-06 03:35 39.38428 116.91836 6694 ft 258 kts 327°
2026-05-06 03:35 39.39946 116.90581 6524 ft 259 kts 327°
2026-05-06 03:35 39.41459 116.89336 6391 ft 257 kts 328°
2026-05-06 03:35 39.42955 116.88106 6222 ft 252 kts 328°
2026-05-06 03:36 39.44423 116.86901 6070 ft 248 kts 328°
2026-05-06 03:36 39.45889 116.85697 5905 ft 248 kts 328°
2026-05-06 03:36 39.47337 116.84499 5732 ft 246 kts 328°
2026-05-06 03:36 39.48775 116.83304 5553 ft 246 kts 328°
2026-05-06 03:37 39.50221 116.82101 5373 ft 249 kts 329°
2026-05-06 03:37 39.51696 116.80879 5220 ft 254 kts 328°
2026-05-06 03:37 39.53205 116.79633 5060 ft 258 kts 329°
2026-05-06 03:37 39.54729 116.78380 4883 ft 260 kts 329°
2026-05-06 03:38 39.56221 116.77139 4691 ft 256 kts 329°
2026-05-06 03:38 39.57716 116.75898 4520 ft 249 kts 329°
2026-05-06 03:38 39.59151 116.74700 4344 ft 248 kts 329°
2026-05-06 03:38 39.60132 116.73880 4238 ft 249 kts 329°
2026-05-06 03:39 39.61600 116.72670 4047 ft 251 kts 330°
2026-05-06 03:39 39.63073 116.71461 3972 ft 250 kts 329°
2026-05-06 03:39 39.65002 116.69850 3922 ft 247 kts 329°
2026-05-06 03:39 39.66442 116.68650 3916 ft 244 kts 330°
2026-05-06 03:40 39.67469 116.68031 3930 ft 239 kts 343°
2026-05-06 03:40 39.69029 116.67562 3920 ft 226 kts 352°
2026-05-06 03:40 39.70552 116.67303 3900 ft 215 kts 354°
2026-05-06 03:40 39.72003 116.67088 3928 ft 207 kts 354°
2026-05-06 03:41 39.73425 116.66873 3952 ft 205 kts 353°
2026-05-06 03:41 39.74840 116.66654 3942 ft 204 kts 353°
2026-05-06 03:41 39.76245 116.66431 3927 ft 203 kts 354°
2026-05-06 03:41 39.77646 116.66210 3933 ft 203 kts 354°
2026-05-06 03:42 39.79047 116.65993 3926 ft 201 kts 353°
2026-05-06 03:42 39.80395 116.65780 3910 ft 187 kts 353°
2026-05-06 03:42 39.81631 116.65604 3940 ft 173 kts 355°
2026-05-06 03:42 39.82820 116.65407 3928 ft 172 kts 353°
2026-05-06 03:43 39.84031 116.65204 3905 ft 177 kts 354°
2026-05-06 03:43 39.85239 116.65011 3935 ft 176 kts 354°
2026-05-06 03:43 39.86436 116.64824 3917 ft 176 kts 354°
2026-05-06 03:43 39.87649 116.64633 3713 ft 175 kts 355°
2026-05-06 03:44 39.88862 116.64450 3488 ft 175 kts 355°
2026-05-06 03:44 39.90070 116.64257 3282 ft 175 kts 354°
2026-05-06 03:44 39.91284 116.64065 3023 ft 174 kts 355°
2026-05-06 03:44 39.92471 116.63877 2821 ft 173 kts 355°
2026-05-06 03:45 39.93672 116.63695 2537 ft 172 kts 356°
2026-05-06 03:45 39.94833 116.63511 2347 ft 166 kts 355°
2026-05-06 03:45 39.95944 116.63334 2141 ft 156 kts 355°
2026-05-06 03:45 39.96987 116.63155 1939 ft 144 kts 356°
2026-05-06 03:46 39.97939 116.63053 1774 ft 131 kts 359°
2026-05-06 03:46 39.98851 116.62896 1592 ft 131 kts 355°
2026-05-06 03:46 39.99738 116.62739 1407 ft 132 kts 355°
2026-05-06 03:46 40.00670 116.62588 1244 ft 138 kts 353°
2026-05-06 03:47 40.01629 116.62439 1056 ft 138 kts 352°
2026-05-06 03:47 40.02600 116.62273 785 ft 145 kts 353°
2026-05-06 03:47 40.02786 116.62242 731 ft 146 kts 354°
2026-05-06 03:47 40.02792 116.62241 729 ft 146 kts 354°
2026-05-06 03:48 40.03792 116.62078 485 ft 144 kts 354°
2026-05-06 03:48 40.04768 116.61941 299 ft 137 kts 354°
2026-05-06 03:48 40.05680 116.61799 182 ft 131 kts 354°
2026-05-06 03:48 40.06576 116.61656 127 ft 122 kts 354°
2026-05-06 03:49 40.07263 116.61555 120 ft 69 kts 352°
2026-05-06 03:49 40.07584 116.61500 119 ft 38 kts 353°
2026-05-06 03:49 40.07813 116.61432 122 ft 31 kts 333°
2026-05-06 03:49 40.07951 116.61312 121 ft 12 kts 321°
2026-05-06 03:50 40.07965 116.61212 123 ft 11 kts 263°
2026-05-06 03:50 40.07946 116.61116 120 ft 11 kts 225°
2026-05-06 03:50 40.07873 116.61103 122 ft 11 kts 172°
2026-05-06 03:50 40.07799 116.61115 123 ft 11 kts 174°
2026-05-06 03:51 40.07733 116.61090 119 ft 10 kts 228°
2026-05-06 03:51 40.07690 116.61016 123 ft 10 kts 230°
2026-05-06 03:51 40.07645 116.60949 122 ft 10 kts 221°
2026-05-06 03:51 40.07587 116.60904 119 ft 10 kts 206°
2026-05-06 03:52 40.07523 116.60889 121 ft 9 kts 180°
2026-05-06 03:52 40.07460 116.60894 121 ft 9 kts 172°
2026-05-06 03:52 40.07398 116.60904 122 ft 9 kts 172°
2026-05-06 03:52 40.07338 116.60914 119 ft 9 kts 172°
2026-05-06 03:53 40.07281 116.60923 120 ft 8 kts 178°
2026-05-06 03:53 40.07246 116.60876 120 ft 8 kts 259°
2026-05-06 03:53 40.07236 116.60819 122 ft 4 kts 246°
2026-05-06 03:53 40.07226 116.60790 123 ft 2 kts 244°
2026-05-06 03:54 40.07225 116.60788 123 ft 0 kts 243°